Wetbulb
75.80 74.70 71.12 73.44 76.09 74.61 76.24 75.44 77.64 77.71 77.48 77.75 77.94 77.47 78.10 76.46 75.38 76.71 76.21 76.66 77.27 74.15
72.26 73.81 72.51 72.03 75.38 75.92 77.61 76.05 77.13 77.09 77.24 77.44 78.37 77.78 78.53 76.31 76.88 76.68 77.09 77.07 76.95 75.69
69.96 70.66 70.69 73.11 76.05 76.50 76.58 77.23 77.34 76.78 77.65 77.21 78.03 78.84 79.38 77.14 77.28 76.76 75.79 74.93 78.09 77.64
71.05 69.60 70.33 71.48 73.83 76.32 76.51 77.35 77.81 78.59 77.81 77.53 77.80 78.62 78.80 78.22 77.97 75.47 76.46 77.24 77.32 77.10
71.27 69.83 69.73 71.83 73.10 74.66 77.49 77.07 77.81 77.85 78.14 78.15 78.28 79.00 77.90 77.07 76.79 76.86 76.07 76.25 74.48 76.30
72.18 71.75 72.43 72.90 73.32 75.11 76.66 77.07 77.41 78.36 78.25 78.61 77.78 77.44 77.35 77.42 76.69 76.03 76.26 75.87 75.22 75.63
73.32 72.87 72.64 74.15 75.12 75.46 75.84 77.25 77.44 76.57 77.89 78.11 77.71 78.21 77.10 76.68 76.71 76.48 76.40 76.50 76.75 75.79
76.81 76.25 75.14 74.93 75.35 76.41 76.59 75.98 77.83 77.59 73.29 75.93 77.43 76.12 77.02 76.29 76.28 76.98 76.57 76.38 76.16 77.09
76.15 76.19 76.39 77.13 76.96 77.09 77.27 78.14 78.19 76.83 76.62 76.50 76.01 70.37 68.89 73.71 75.09 75.66 75.64 75.51 74.87 76.88
72.94 72.72 73.46 74.00 74.63 76.02 77.09 77.64 77.33 77.14 76.54 75.63 75.57 68.65 66.57 69.07 73.97 75.13 75.71 76.61 77.26 76.26
71.79 71.85 73.51 73.78 73.61 73.97 74.79 75.02 75.18 75.95 76.07 75.99 75.74 65.81 63.55 65.25 72.71 73.89 74.53 75.30 76.11 75.53
71.38 71.07 71.89 71.45 72.38 73.86 73.35 73.16 73.77 74.50 74.13 73.47 73.65 63.65 62.08 66.34 71.66 70.56 72.41 73.14 74.71 74.93
71.95 72.22 71.50 72.93 73.10 73.20 73.20 72.90 70.81 71.36 73.40 69.83 72.70 64.18 60.04 64.62 69.55 69.47 69.97 72.35 73.78 67.58
71.90 73.31 73.56 73.62 73.80 73.71 73.24 73.40 73.23 72.73 73.28 73.17 72.25 72.85 60.15 60.22 68.44 67.23 67.00 67.29 67.65 69.98
MSLP
1011.37 1011.99 1012.62 1012.86 1012.76 1011.97 1010.96 1011.08 1011.50 1012.03 1012.25 1012.54 1012.69 1013.09 1013.22 1013.43 1013.45 1013.32 1013.36 1013.53 1013.52 1013.14
1011.20 1011.38 1012.22 1012.63 1012.56 1011.94 1011.01 1010.95 1011.55 1011.96 1011.97 1011.88 1011.94 1012.43 1012.66 1012.76 1012.81 1013.00 1013.11 1012.91 1013.06 1013.21
1011.09 1011.14 1012.03 1012.28 1011.93 1011.41 1011.08 1010.94 1011.31 1011.30 1011.08 1011.31 1011.63 1011.91 1012.29 1012.20 1012.33 1012.58 1012.57 1012.27 1012.27 1012.58
1011.82 1011.85 1012.03 1012.11 1011.76 1011.16 1010.87 1010.83 1011.02 1011.02 1010.93 1010.93 1011.00 1011.40 1011.71 1011.66 1011.48 1012.08 1012.32 1012.19 1011.94 1012.01
1011.62 1011.94 1011.96 1011.61 1011.50 1010.99 1010.53 1010.74 1010.70 1010.62 1010.49 1010.38 1010.57 1010.74 1011.12 1011.20 1010.78 1011.31 1011.69 1011.82 1012.00 1011.72
1011.33 1011.45 1011.06 1010.89 1010.83 1010.84 1010.53 1010.53 1010.20 1010.28 1010.23 1010.26 1010.05 1010.07 1010.20 1010.29 1010.49 1010.79 1010.97 1011.20 1011.45 1011.33
1010.58 1010.93 1010.93 1010.77 1010.64 1010.52 1010.67 1010.31 1010.22 1010.32 1010.61 1010.53 1009.92 1009.79 1009.35 1009.26 1009.63 1009.94 1009.97 1010.20 1010.28 1010.19
1010.27 1010.39 1010.57 1010.55 1010.36 1010.22 1010.18 1010.16 1010.24 1010.20 1010.28 1010.06 1009.78 1009.66 1009.47 1009.47 1009.21 1009.21 1009.28 1009.40 1009.58 1009.47
1010.46 1010.45 1010.29 1010.12 1009.98 1009.91 1009.75 1009.67 1010.02 1009.94 1009.66 1009.73 1009.57 1009.10 1009.28 1009.11 1009.03 1008.93 1009.12 1009.07 1009.14 1008.94
1010.44 1010.36 1010.24 1010.10 1009.89 1009.63 1009.44 1009.42 1009.35 1009.21 1009.25 1009.26 1009.33 1009.21 1009.41 1009.38 1009.35 1009.04 1009.08 1008.95 1008.71 1008.62
1010.49 1010.31 1010.12 1009.92 1009.82 1009.75 1009.58 1009.39 1009.24 1009.07 1009.11 1009.21 1008.89 1009.11 1009.44 1009.85 1009.82 1009.36 1009.17 1009.17 1008.96 1008.96
1010.58 1010.47 1010.25 1010.03 1009.85 1009.69 1009.53 1009.35 1009.13 1008.97 1008.95 1008.91 1008.91 1009.28 1009.54 1009.66 1009.42 1009.14 1008.89 1008.93 1008.87 1008.59
1010.47 1010.38 1010.21 1010.01 1009.84 1009.62 1009.37 1008.88 1008.55 1008.40 1008.34 1008.27 1008.37 1008.61 1009.03 1009.30 1008.88 1008.60 1008.30 1008.14 1007.94 1007.68
1010.17 1010.11 1009.97 1009.74 1009.59 1009.37 1009.18 1008.90 1008.63 1008.38 1008.06 1007.87 1007.80 1007.81 1008.33 1008.46 1008.56 1008.16 1007.54 1007.25 1006.83 1006.65
Wind_Speed
10 6 4 6 5 8 5 6 4 6 7 11 10 9 9 8 8 10 9 10 8 9
6 11 9 8 9 8 7 7 6 9 9 9 10 12 12 9 10 10 7 9 8 9
6 4 2 4 8 6 7 6 7 10 11 10 11 9 9 10 11 10 9 9 8 9
5 7 6 6 5 8 7 7 9 9 8 9 10 9 10 11 9 9 10 11 9 9
5 5 6 7 7 8 9 9 10 11 11 12 10 10 10 12 10 9 11 12 11 10
7 8 9 9 8 10 10 10 11 11 12 12 12 12 12 10 11 10 10 11 11 13
8 8 9 9 9 8 9 11 11 7 9 14 13 12 12 12 11 11 13 12 12 10
5 6 8 10 10 11 12 10 11 8 10 17 13 11 12 10 10 11 12 12 11 13
2 4 6 6 8 9 8 9 10 10 10 10 11 10 8 8 10 10 11 12 12 14
3 4 5 7 7 8 8 8 10 10 11 12 11 9 7 8 11 10 11 12 11 12
6 7 7 7 7 7 7 8 9 10 9 10 10 2 7 7 8 10 10 11 12 13
7 8 8 8 8 8 7 8 8 8 9 9 9 5 5 2 9 11 11 10 11 10
8 8 9 9 8 7 8 9 8 9 10 10 8 7 10 7 5 9 10 10 12 15
9 9 10 10 9 9 9 10 10 11 10 11 11 11 13 9 5 9 8 9 10 12
Wind_Direction
237 189 164 278 263 280 250 230 187 269 250 222 240 227 223 213 223 240 230 237 251 278
259 190 177 205 251 237 244 255 194 240 256 248 239 221 227 217 220 241 237 237 239 247
147 89 90 264 240 231 273 251 247 252 232 236 241 232 233 221 219 231 237 233 229 238
154 141 225 244 266 270 246 247 230 236 245 248 239 228 224 243 253 207 234 259 266 229
222 236 208 226 250 278 270 260 254 250 236 237 226 233 224 241 238 227 232 228 248 254
218 234 252 262 269 271 274 269 259 253 251 250 237 230 226 230 237 228 232 238 238 236
206 247 265 272 273 270 267 272 286 272 290 266 238 237 227 213 215 228 232 226 247 236
284 242 236 250 259 261 251 256 261 225 212 251 248 241 232 239 222 223 226 228 231 240
247 255 271 271 261 258 257 250 259 249 245 244 247 245 254 233 236 232 241 235 234 242
6 344 337 328 325 320 305 287 275 266 262 268 271 277 265 254 252 256 254 253 249 247
333 332 329 321 316 318 312 304 304 305 307 299 294 208 86 40 284 278 294 295 277 259
308 310 314 315 323 319 308 307 301 295 295 296 296 108 126 311 283 275 273 266 272 269
289 289 293 299 303 304 301 288 289 307 306 294 273 203 170 188 285 276 269 269 264 231
290 290 281 271 270 273 280 287 290 292 289 278 267 255 178 174 267 267 276 288 286 269